Tracking 17630 objects as of 24-May-2016
HD Live streaming from Space Station
objects crossing your sky now

COSMOS 2251 DEB

Track COSMOS 2251 DEB now!
10-day predictions


NORAD ID: 34781
Int'l Code: 1993-036AAJ
Perigee: 506.3 km
Apogee: 522.1 km
Inclination: 74.0 °
Period: 94.8 minutes
Semi major axis: 6885 km
RCS: 0.0067 m2 (small)
Launch date: June 16, 1993
Source: Commonwealth of Independent States (former USSR) (CIS)
Launch site: PLESETSK MISSILE AND SPACE COMPLEX (PKMTR)

Note: This is SATELLITE DEBRIS
Your satellite tracking list
Your tracking list is empty





NASA's NSSDC Master Catalog

Two Line Element Set (TLE):
1 34781U 93036AAJ 16143.95546759 +.00042980 +00000-0 +20040-2 0  9990
2 34781 074.0362 336.3136 0011449 350.6322 133.4887 15.19609798382453
Source of the keplerian elements: AFSPC

N2YO: 477